Location: Newark
(11.2914°S, 14.4718°E)
Time: 05:18:49
(UTC+00:00)

Vanguard 2 - Pass Details

Date: 22 September 2019
Orbit: 554 x 2937 km, 32.9° (Epoch: 23 October)

Event Time Altitude Azimuth Distance (km) Brightness Sun altitude
Rises 20:58:59 0° 241° (WSW) 5,896 12.5 -59.2°
Reaches altitude 10° 21:02:27 10° 242° (WSW) 5,126 12.0 -60.0°
Enters shadow 21:11:14 44° 252° (WSW) 3,517 10.8 -62.0°
